Regional Weather Roundup
Issued by NWS State College, PA

Home | Current Version | Previous Version | Graphics & Text | Print | Product List | Glossary On
Versions: 1 2 3 4 5 6 7 8 9 10 11 12 13 14 15 16 17 18 19 20 21 22 23 24 25 26 27 28 29 30 31 32 33 34 35 36 37 38 39 40 41 42 43 44 45 46 47 48 49 50
000
ASUS41 KCTP 200203
RWRCTP

REGIONAL WEATHER ROUNDUP
NATIONAL WEATHER SERVICE STATE COLLEGE PA
1000 PM EDT SAT APR 19 2014

Note: "fair" indicates few or no clouds below 12,000 feet with no
significant weather and/or obstructions to visibility.

* = STATION THAT DOES NOT REPORT PRECIPITATION /E.G. RAIN...SNOW...ETC/
    THUNDER OR FOG.

PAZ002>004-007>009-013>016-020>023-029>032-200300-
WESTERN PENNSYLVANIA

CITY           SKY/WX    TMP DP  RH WIND       PRES   REMARKS
ERIE           CLEAR     44  26  49 E10       30.35F
MEADVILLE      PTCLDY    44  30  57 NE13      30.32S
FRANKLIN*      PTCLDY    48  25  40 N3        30.33S
NEW CASTLE     FAIR      49  31  50 CALM      30.33R
BEAVER COUNTY  NOT AVBL
BUTLER*        MOCLDY    52  23  32 CALM      30.31S
PITTSBURGH INT MOCLDY    57  20  23 N6        30.29R
PITTSBURGH     MOCLDY    58  18  21 N3        30.28R
INDIANA*       MOCLDY    46  30  53 CALM      30.30R
LATROBE        MOCLDY    48  28  46 CALM      30.30R
WASHINGTON CO* CLOUDY    45  27  49 CALM      30.30R
$$

PAZ004>006-010>012-017>019-024>028-033>037-041-042-045-046-049>053-200300-
CENTRAL PENNSYLVANIA

CITY           SKY/WX    TMP DP  RH WIND       PRES   REMARKS
BRADFORD       MOCLDY    44  23  43 NE6       30.34R
DUBOIS         MOCLDY    51  23  33 NE8       30.31R
CLEARFIELD     MOCLDY    51  22  31 NE7       30.33R
JOHNSTOWN      MOCLDY    50  19  29 E3        30.29R
ALTOONA        MOCLDY    52  23  32 E6        30.31R
STATE COLLEGE  MOCLDY    51  20  29 NE6       30.34R
WILLIAMSPORT   MOCLDY    49  28  44 N7        30.38R
SELINSGROVE    MOCLDY    51  27  39 N10       30.36R
FT INDIANTOWN  NOT AVBL
CAPITAL CITY   MOCLDY    57  21  24 NE8       30.32R
HARRISBURG     CLOUDY    57  22  25 NE6       30.32R
YORK           MOCLDY    53  26  35 NE5       30.31R
$$

PAZ038>040-043-044-047-048-054-055-060>062-067>071-200300-
EASTERN PENNSYLVANIA

CITY           SKY/WX    TMP DP  RH WIND       PRES   REMARKS
SCRANTON       PTCLDY    48  26  42 N6        30.36R
MOUNT POCONO   PTCLDY    44  22  41 N7        30.33R
ALLENTOWN      MOCLDY    49  28  44 N5        30.33R
QUAKERTOWN*    MOCLDY    54  23  30 N5        30.32R
READING        MOCLDY    55  24  30 N7        30.32R
LANCASTER      MOCLDY    51  26  37 N9        30.31R
COATESVILLE    MOCLDY    55  21  26 N7        30.31R
POTTSTOWN      MOCLDY    55  24  30 N9        30.32R
BLUE BELL      CLOUDY    57  23  26 CALM      30.30R
DOYLESTOWN     MOCLDY    53  23  31 N3        30.30R
WILLOW GROVE   NOT AVBL
NORTH PHILA    CLOUDY    56  30  37 CALM      30.33R
PHILADELPHIA   CLOUDY    56  37  49 S5        30.31R
$$



USA.gov is the U.S. government's official web portal to all federal, state and local government web resources and services.